Location: Kaarina
(60.4167°N, 22.4167°E)
Time: 21:18:43
(UTC+03:00)

Cosmos 1125 Rocket - Pass Details

Date: 24 August 2019
Orbit: 757 x 781 km, 74.0° (Epoch: 22 September)

Event Time Altitude Azimuth Distance (km) Brightness Sun altitude
Exits shadow 23:35:47 20° 177° (S) 1,731 4.8 -14.9°
Maximum altitude 23:39:11 48° 111° (ESE) 999 3.8 -15.1°
Drops below altitude 10° 23:44:15 10° 38° (NE) 2,331 6.3 -15.4°
Sets 23:46:42 0° 34° (NNE) 3,266 7.2 -15.6°
